#timestamp,LO_Frequency,Hit,StdDev 
1539694815.3,286046998.1,N
1539694835.1,286046998.9,N
1539694855.9,286046997.6,N
1539694875.7,286046997.8,N
1539694895.6,286046999.4,N
1539694915.4,286046999.4,N
1539694935.2,286046996.3,Y
1539694955.1,286046996.5,P
1539694956.0,286046996.5,P
1539694975.8,286046999.6,N
1539694995.6,286046997.0,N
1539695015.5,286046997.3,N
1539695035.3,286046995.1,Y
1539695055.2,286046999.1,P
1539695075.9,286046998.7,N
1539695095.7,286046998.4,N
1539695115.6,286046996.5,Y
1539695135.4,286046998.7,P
1539695155.2,286046998.6,P
1539695175.1,286046998.4,P
1539695176.0,286046998.4,Y
1539695195.8,286047000.1,P
1539695215.7,286047000.1,N
1539695235.5,286047000.1,N
1539695255.3,286046998.6,N
1539695275.2,286046998.8,N
1539695295.0,286046998.7,N
1539695295.9,286046998.7,N
1539695315.8,286046998.6,N
1539695335.6,286046996.7,Y
1539695355.4,286046994.9,P
1539695375.3,286046995.2,N
1539695395.1,286046994.5,N
1539695415.8,286046993.6,Y
1539695435.7,286046996.6,P
1539695455.5,286046998.7,P
1539695475.4,286047001.0,N
1539695495.2,286047002.4,N
1539695515.0,286047000.2,N
1539695515.9,286047000.2,N
1539695535.8,286047000.2,N
1539695555.6,286047001.0,N
1539695575.4,286047000.1,N
1539695595.3,286047002.7,N
1539695615.1,286046998.5,N
1539695635.9,286046996.6,N
1539695655.7,286046996.7,N
1539695675.5,286046998.4,N
1539695695.4,286047000.8,N
1539695715.2,286046998.6,N
1539695735.0,286047001.9,N
1539695735.9,286047001.9,N
1539695755.8,286047000.5,N
1539695775.6,286047002.1,N
1539695795.5,286046999.7,N
1539695815.3,286047001.0,N
1539695835.1,286047000.9,N
1539695855.9,286047000.4,N
1539695875.7,286047002.2,N
1539695895.5,286046999.9,N
1539695915.4,286047002.9,N
1539695935.2,286047007.6,Y
1539695955.1,286047005.5,P
1539695956.0,286047005.5,N
1539695975.8,286047004.6,N
1539695995.6,286047004.8,N
1539696015.5,286047006.0,N
1539696035.3,286047004.9,N
1539696055.1,286047005.6,Y
1539696075.9,286046999.4,P
1539696095.7,286046999.3,N
1539696115.6,286046999.1,N
1539696135.4,286046998.3,N
1539696155.2,286046998.8,N
1539696175.1,286047000.6,N
1539696176.0,286047000.6,N
1539696195.8,286046996.6,N
1539696215.6,286046996.7,N
1539696235.5,286046997.0,N
1539696255.3,286046999.6,N
1539696275.2,286046996.7,N
1539696295.9,286046996.8,N
1539696315.7,286046995.9,N
1539696335.6,286046996.2,N
1539696355.4,286046996.8,N
1539696375.2,286046998.6,N
1539696395.1,286047001.0,N
1539696396.0,286047001.0,N
1539696415.8,286047001.0,N
1539696435.7,286046999.3,N
1539696455.5,286046996.8,N
1539696475.3,286046999.6,N
1539696495.2,286046999.4,N
1539696515.0,286047001.1,N
1539696515.9,286047001.1,N
1539696535.8,286047000.8,N
1539696555.6,286046998.7,N
1539696575.4,286046999.1,N
1539696595.3,286046999.2,N
1539696615.1,286046998.6,N
1539696635.8,286046998.2,N
1539696655.7,286047000.9,N
1539696675.5,286047000.4,N
1539696695.4,286046999.9,N
1539696715.2,286047001.3,N
1539696735.0,286047001.6,N
1539696735.9,286047001.6,N
1539696755.8,286047002.1,N
1539696775.6,286047002.1,N
1539696795.4,286047000.0,N
1539696815.3,286047000.8,N
1539696835.1,286046998.9,N
1539696855.9,286046995.0,N
1539696875.7,286046997.1,N
1539696895.5,286046996.7,N
1539696915.4,286046997.0,N
1539696935.2,286046999.2,N
1539696955.0,286046998.3,N
1539696955.9,286046998.3,N
1539696975.8,286047002.4,N
1539696995.6,286047000.5,N
1539697015.5,286046997.1,N
1539697035.3,286046995.2,N
1539697055.1,286046992.1,Y
1539697075.9,286046994.8,P
1539697095.7,286046994.3,N
1539697115.5,286046992.4,P
1539697135.4,286046994.1,N
1539697155.2,286046995.6,N
1539697175.1,286046995.3,N
1539697176.0,286046995.3,N
1539697195.8,286046995.5,N
1539697215.6,286046995.2,N
1539697235.5,286046997.3,N
1539697255.3,286046993.3,Y
1539697275.2,286046997.0,P
1539697295.9,286046999.1,N
1539697315.7,286046999.5,N
1539697335.6,286046998.5,N
1539697355.4,286046999.5,N
1539697375.2,286046998.0,N
1539697395.1,286046997.6,N
1539697396.0,286046997.6,N
1539697415.8,286046995.0,Y
1539697435.7,286046998.8,P
1539697455.5,286046999.2,N
1539697475.3,286046999.6,N
1539697495.2,286046999.4,N
1539697515.0,286046996.8,Y
1539697515.9,286046996.8,P
1539697535.8,286046999.4,N
1539697555.6,286046998.2,N
1539697575.4,286047001.1,N
1539697595.3,286047004.0,N
1539697615.1,286047003.4,N
1539697635.8,286047003.1,N
1539697655.7,286047004.4,N
1539697675.5,286047002.3,N
1539697695.3,286047001.6,N
1539697715.2,286046999.7,N
1539697735.0,286047001.0,N
1539697735.9,286047001.0,N
1539697755.8,286047000.5,N
1539697775.6,286047000.5,N
1539697795.4,286047000.0,N
1539697815.3,286047000.0,N
1539697835.1,286047000.9,N
1539697855.9,286046996.5,N
1539697875.7,286046997.8,N
1539697895.5,286046997.5,N
1539697915.4,286046997.6,N
1539697935.2,286046995.8,N
1539697955.0,286046995.8,N
1539697955.9,286046995.8,N
1539697975.8,286046997.9,N
1539697995.6,286046995.1,N
1539698015.5,286046993.5,N
1539698035.3,286046995.3,N
1539698055.1,286046994.1,N
1539698075.9,286046997.1,N
1539698095.7,286046997.2,N
1539698115.5,286046996.9,N
1539698135.4,286046998.8,N
1539698155.2,286046999.5,N
1539698175.0,286046999.6,N
1539698176.0,286046999.6,N
1539698195.8,286047001.2,N
1539698215.6,286047002.5,N
1539698235.5,286047002.5,N
1539698255.3,286047002.2,N
1539698275.1,286047002.3,N
1539698295.9,286047001.8,N
1539698315.7,286047000.1,N
1539698335.6,286047001.1,N
1539698355.4,286047001.2,N
1539698375.2,286046998.4,N
1539698395.1,286046999.0,N
1539698396.0,286046999.0,N
